Simultaneous Nadir Overpasses (SNOs) Predictions

Prediction of SNOs between METOP-B and NOAA-19 Satellite Orbit:

Table of predicted SNOs for the next 14.0 days since TLE Epoch: 1/12/2018
Index Date (METOP-B) Time (METOP-B) Lat,Lon (METOP-B) SZA (METOP-B ) Date (NOAA-19) Time (NOAA-19) Lat,Lon (NOAA-19) SZA (NOAA-19 ) Distance(km) Time Diff (sec)
1 01/16/2018 13:54:10 -77.92, 159.27 81.24 01/16/2018 13:53:04 -77.91, 159.32 81.25 1.30 66
2 01/16/2018 14:44:50 77.90, -33.46 98.75 01/16/2018 14:44:01 77.91, -33.41 98.75 1.19 49
3 01/16/2018 15:35:32 -77.90, 133.84 81.27 01/16/2018 15:35:05 -77.90, 133.88 81.27 0.95 27
4 01/16/2018 16:26:12 77.89, -58.88 98.72 01/16/2018 16:26:02 77.90, -58.85 98.73 1.35 10
5 01/16/2018 17:16:54 -77.88, 108.42 81.30 01/16/2018 17:17:06 -77.88, 108.45 81.30 0.77 12
6 01/16/2018 18:07:34 77.87, -84.31 98.68 01/16/2018 18:08:03 77.88, -84.28 98.70 1.69 29
7 01/16/2018 18:58:16 -77.86, 82.99 81.33 01/16/2018 18:59:07 -77.87, 83.02 81.32 0.88 51
8 01/16/2018 19:48:56 77.85,-109.73 98.65 01/16/2018 19:50:04 77.87,-109.72 98.68 2.14 68




NCC Satellite Simultaneous Nadir Overpasses (SNOs) Prediction Service
